Tracking 30101 objects as of 14-Dec-2024
HD Live streaming from Space Station
objects crossing your sky now

COSMOS 1275 DEB *

Track COSMOS 1275 DEB * now!
10-day predictions


NORAD ID: 18565
Int'l Code: 1981-053LY
Perigee: 971.7 km
Apogee: 1,124.2 km
Inclination: 82.5 °
Period: 106.0 minutes
Semi major axis: 7418 km
RCS: 0.0174 m2 (small)
Launch date: June 4, 1981
Source: Commonwealth of Independent States (former USSR) (CIS)
Launch site: PLESETSK MISSILE AND SPACE COMPLEX (PKMTR)

Note: This is SATELLITE DEBRIS
Your satellite tracking list
Your tracking list is empty




NASA's NSSDC Master Catalog

Two Line Element Set (TLE):
1 18565U 85094U   24348.54500407  .00010673  00000-0  14118-1 0  9990
2 18565  82.4833 196.8425 0102755 184.7898 202.9956 13.58584574616179
Source of the keplerian elements: AFSPC